Regional Weather Roundup
Issued by NWS Newport/Morehead, NC

Current Version | Previous Version | Text Only | Print | Product List | Glossary On
Versions: 1 2 3 4 5 6 7 8 9 10 11 12 13 14 15 16 17 18 19 20 21 22 23 24 25 26 27 28 29 30 31 32 33 34 35 36 37 38 39 40 41 42 43 44
000
ASUS42 KMHX 231910
RWRMHX
WEATHER ROUNDUP FOR EASTERN NORTH CAROLINA
NATIONAL WEATHER SERVICE NEWPORT/MOREHEAD CITY NC
300 PM EDT WED APR 23 2014

NOTE: "FAIR" INDICATES FEW OR NO CLOUDS BELOW 12,000 FEET
WITH NO SIGNIFICANT WEATHER AND/OR OBSTRUCTIONS TO VISIBILITY

NCZ015>017-031-032-045>047-102-103-232000-
NORTH COAST

CITY           SKY/WX    TMP DP  RH WIND       PRES   REMARKS
EDENTON        MOSUNNY   70  38  30 NW14G22   29.78F
ELIZABETH CITY NOT AVBL
KITTY HAWK     PTCLDY    59  38  45 NE6       29.78S
MANTEO         SUNNY     61  37  41 NE12      29.79S

$$

NCZ045>047-081-094-103-104-232000-
CENTRAL COAST

CITY           SKY/WX    TMP DP  RH WIND       PRES   REMARKS
FRISCO         SUNNY     62  40  44 NE13      29.79S
SWANQUARTER      N/A     70 N/A N/A W12G22    29.74S

$$

NCZ095-097-098-100-101-232000-
SOUTHERN COAST

CITY           SKY/WX    TMP DP  RH WIND       PRES   REMARKS
BEAUFORT       SUNNY     67  55  65 S10       29.78F
CEDAR ISLAND     N/A     63 N/A N/A E9        29.82S
JACKSONVILLE   SUNNY     75  36  24 NW16G26   29.79F
NEWPORT          N/A     73  37  27 NW8         N/A
PINEY ISLAND   PTCLDY    67  55  65 E9        29.78R
WILMINGTON     SUNNY     81  35  19 W18       29.78F


$$

NCZ011>013-027>030-043-044-078>080-089-090>093-098-232000-
COASTAL PLAIN

CITY           SKY/WX    TMP DP  RH WIND       PRES   REMARKS
AHOSKIE        SUNNY     68  36  30 NW7       29.80S
CLINTON        SUNNY     73  37  26 NW13G18   29.83S
ELIZABETHTOWN  SUNNY     77  33  20 NW16      29.82R
GOLDSBORO      SUNNY     73  30  20 NW16G25   29.80S
GREENVILLE     SUNNY     70  34  26 NW9G16    29.83S
HAVELOCK       SUNNY     74  33  22 NW16G25   29.79S
KENANSVILLE    SUNNY     72  32  23 W7        29.82F
KINSTON        SUNNY     72  30  21 W9G17     29.81S
NEW BERN       SUNNY     74  35  24 W15G22    29.80S
RICHLANDS      SUNNY     73  70  88 W7G22     29.81S
ROANOKE RAPIDS NOT AVBL
ROCKY MOUNT    SUNNY     71  30  21 W16G25    29.82S
WASHINGTON     SUNNY     73  26  17 W10G17    29.79S
WHITEVILLE     SUNNY     78  34  20 W8        29.81S

$$

AMZ130-135-150-152-154-156-158-170-250-252-270-ANZ085-086-088-633-658-670-232000-
MARINE OBSERVATIONS

STATION/POSITION TIME  TEMP    WIND        PRES    WAVE   SWELL
                       AIR SEA DIR/SP/G            HT/PER HT/PER
                 (UTC) (F)     (DEG/KT/KT) (MB)    (FT/S) (FT/S)
CHESAPEAKE LIGHT 1800   54     340/ 19/ 20 1008.6
BUOY 44014       1900   52 49  330/ 12/ 14 1007.8    4/ 5   2/ 9
DUCK             1900   54 50   50/  6/ 13 1007.6
2E DUCK          1900      50                N/A     3/ 5
OREGON INLET     1900   56 58   20/ 10/ 15 1008.4
BUOY 44095       1900      51                N/A     4/ 5
HATTERAS CG      1900   59 59   50/  9/ 12 1008.7
DIAMOND BUOY     1900   61 76   20/ 12/ 14 1008.2    6/ 7   5/ 7
CAPE LOOKOUT     1800   63     110/  3/  4 1008.7
BEAUFORT LAB     1900   62 61  180/ 10/ 13 1007.9
30 SE NEW RIVER  1900   69 70  260/  6/  8 1008.9    3/ 8   2/ 8
5 SE WRIGHTSVILL 1800   69 62  320/ 10/ 12 1008.8
FRYING PAN BUOY  1900   67 69  240/ 12/ 12 1009.0    3/ 9   2/ 9
BUOY 41001       NOT AVBL
BUOY 41002       NOT AVBL
BUOY 41004       1900   67 68  230/ 10/ 10 1010.2    2/ 8   2/ 8

$$



USA.gov is the U.S. government's official web portal to all federal, state and local government web resources and services.